Location: Fours
(44.3167°N, 6.7000°E)
Time: 10:35:07
(UTC+00:00)

Cosmos 2098 - Pass Details

Date: 06 June 2022
Orbit: 387 x 1577 km, 82.9° (Epoch: 30 June)

Event Time Altitude Azimuth Distance (km) Brightness Sun altitude
Rises 01:48:06 0° 354° (N) 2,299 8.9 -16.2°
Reaches altitude 10° 01:49:59 10° 357° (N) 1,470 7.8 -16.0°
Maximum altitude 01:53:03 70° 81° (E) 475 4.6 -15.7°
Enters shadow 01:55:32 19° 164° (SSE) 1,236 6.2 -15.4°
